カタログに戻る

FENGYUN 1C DEB

運用中SSO
NORAD 37430·DEBRIS·🇨🇳 China

打ち上げ May 10, 1999 から Taiyuan Satellite Launch Center

Loading…

次のパス (今後24時間)

TLE

古いSource: Space-Track

元期: Aug 31, 2026, 16:17 UTC

1 37430U 99025EGY 26243.67911828  .00002422  00000-0  93729-3 0  9994
2 37430  98.7514 324.3541 0017396  28.0460 332.1656 14.30924255654456

AllMySatでFENGYUN 1C DEBをリアルタイム追跡

Download on the App Store